Location: St. Louis
(38.6270°N, 90.1994°W)
Time: 11:56:30
(UTC-06:00)

S-56A Canister/Altair - Pass Details

Date: 09 December 2021
Orbit: 634 x 2499 km, 38.9° (Epoch: 26 January)

Event Time Altitude Azimuth Distance (km) Brightness Sun altitude
Rises 00:19:52 0° 266° (W) 5,451 - -73.2°
Reaches altitude 10° 00:23:54 10° 267° (W) 4,179 - -72.9°
Maximum altitude 00:34:28 88° 357° (N) 1,316 - -71.9°
Drops below altitude 10° 00:41:14 10° 88° (E) 2,758 - -71.2°
Sets 00:43:24 0° 89° (E) 3,528 - -70.9°
